This is the latest recevied weather packets stored in our database for station/object W4DEX-2. If no packets are shown the sender has not sent any weather packets the latest 10 day(s).
| Time | Temp. | Humidity | Pressure | Rain* | Wind** | Luminosity | Snow |
|---|---|---|---|---|---|---|---|
| 1778169002 | 18.89° C | 89% | 1007.4 hPa | 0 mm | 4.47 m/s, 175° | - | - |
| 1778168102 | 18.89° C | 89% | 1008 hPa | 0 mm | 4.47 m/s, 177° | - | - |
| 1778167802 | 18.89° C | 89% | 1008 hPa | 0 mm | 5.36 m/s, 172° | - | - |
| 1778167503 | 18.89° C | 89% | 1008.8 hPa | 0 mm | 4.92 m/s, 173° | - | - |
| 1778166902 | 18.89° C | 89% | 1009 hPa | 0 mm | 4.02 m/s, 180° | - | - |
| 1778166602 | 18.89° C | 89% | 1009.1 hPa | 0 mm | 4.02 m/s, 180° | - | - |
| 1778166002 | 18.89° C | 89% | 1009.3 hPa | 0 mm | 4.92 m/s, 179° | - | - |
| 1778165702 | 18.89° C | 89% | 1009.3 hPa | 0 mm | 4.47 m/s, 180° | - | - |
| 1778165404 | 18.33° C | 89% | 1009.5 hPa | 0 mm | 4.47 m/s, 173° | - | - |
| 1778164803 | 18.89° C | 89% | 1009.5 hPa | 0 mm | 5.36 m/s, 179° | - | - |
| 1778164502 | 18.89° C | 89% | 1009.5 hPa | 0 mm | 4.92 m/s, 177° | - | - |
| 1778164207 | 18.89° C | 89% | 1009.5 hPa | 0 mm | 5.36 m/s, 181° | - | - |
| 1778163903 | 18.89° C | 89% | 1009.3 hPa | 0 mm | 4.92 m/s, 180° | - | - |
| 1778163603 | 18.89° C | 89% | 1008.7 hPa | 0 mm | 4.92 m/s, 177° | - | - |
| 1778163002 | 18.89° C | 89% | 1008.8 hPa | 0 mm | 5.36 m/s, 179° | - | - |
| 1778162702 | 18.33° C | 89% | 1009.2 hPa | 0 mm | 4.02 m/s, 177° | - | - |
| 1778162403 | 18.33° C | 89% | 1009.4 hPa | 0 mm | 4.47 m/s, 177° | - | - |
| 1778161802 | 18.33° C | 89% | 1009.4 hPa | 0 mm | 5.81 m/s, 174° | - | - |
| 1778161502 | 18.33° C | 89% | 1009.6 hPa | 0 mm | 5.36 m/s, 180° | - | - |
| 1778161202 | 18.33° C | 89% | 1009.5 hPa | 0 mm | 4.92 m/s, 180° | - | - |
| 1778160902 | 18.33° C | 89% | 1009.4 hPa | 0 mm | 4.92 m/s, 181° | - | - |
| 1778159702 | 18.33° C | 89% | 1009.5 hPa | 0 mm | 5.36 m/s, 178° | - | - |
| 1778159102 | 18.33° C | 89% | 1009.5 hPa | 0 mm | 5.36 m/s, 174° | - | - |
| 1778158802 | 18.33° C | 89% | 1009.7 hPa | 0 mm | 5.36 m/s, 180° | - | - |
| 1778158503 | 18.33° C | 89% | 1010 hPa | 0 mm | 4.47 m/s, 180° | - | - |
* Rain latest hour (hover to see other rain measurements)
** Current wind speed in m/s (hover to see current wind gust speed)